TimeEDT,TemperatureF,Dew PointF,Humidity,Sea Level PressureIn,VisibilityMPH,Wind Direction,Wind SpeedMPH,Gust SpeedMPH,PrecipitationIn,Events,Conditions,WindDirDegrees,DateUTC
12:53 AM,63.0,55.9,78,29.57,10.0,SSW,13.8,20.7,0.06,,Overcast,210,2012-10-15 04:53:00
1:53 AM,63.0,55.9,78,29.54,10.0,South,12.7,24.2,0.00,,Partly Cloudy,190,2012-10-15 05:53:00
2:53 AM,66.0,55.9,70,29.52,10.0,SSW,20.7,31.1,N/A,,Overcast,200,2012-10-15 06:53:00
3:48 AM,60.8,55.4,82,29.56,8.0,WSW,21.9,35.7,0.02,Rain,Light Rain,240,2012-10-15 07:48:00
3:53 AM,59.0,55.0,87,29.56,10.0,SW,21.9,35.7,0.02,Rain,Light Rain,230,2012-10-15 07:53:00
4:03 AM,57.2,53.6,88,29.57,5.0,WSW,21.9,31.1,0.02,Rain,Rain,240,2012-10-15 08:03:00
4:53 AM,57.0,51.1,81,29.58,10.0,WSW,24.2,36.8,0.03,,Overcast,240,2012-10-15 08:53:00
5:13 AM,57.2,50.0,77,29.60,10.0,WSW,25.3,36.8,N/A,,Overcast,240,2012-10-15 09:13:00
5:53 AM,57.0,48.0,72,29.60,10.0,SW,19.6,35.7,N/A,,Overcast,230,2012-10-15 09:53:00
6:53 AM,55.9,48.0,75,29.62,10.0,SW,17.3,24.2,N/A,,Overcast,230,2012-10-15 10:53:00
7:53 AM,53.1,48.9,86,29.65,6.0,SW,15.0,24.2,0.01,Rain,Light Rain,220,2012-10-15 11:53:00
8:38 AM,53.6,48.2,82,29.67,10.0,SSW,17.3,23.0,0.02,Rain,Light Rain,210,2012-10-15 12:38:00
8:53 AM,53.1,48.9,86,29.67,10.0,SW,17.3,26.5,0.02,Rain,Light Rain,220,2012-10-15 12:53:00
9:53 AM,53.1,48.9,86,29.68,8.0,SW,19.6,26.5,0.00,Rain,Light Rain,220,2012-10-15 13:53:00
10:19 AM,53.6,48.2,82,29.68,4.0,SW,13.8,23.0,0.00,Rain,Light Rain,220,2012-10-15 14:19:00
10:53 AM,53.1,48.0,83,29.69,10.0,SW,17.3,23.0,0.00,,Overcast,220,2012-10-15 14:53:00
11:08 AM,53.6,48.2,82,29.69,10.0,SW,15.0,23.0,N/A,,Overcast,220,2012-10-15 15:08:00
11:53 AM,53.1,48.0,83,29.70,10.0,SW,16.1,24.2,0.00,,Overcast,220,2012-10-15 15:53:00
12:02 PM,53.6,48.2,82,29.70,10.0,SW,16.1,25.3,N/A,,Overcast,220,2012-10-15 16:02:00
12:53 PM,53.1,48.0,83,29.70,10.0,SW,17.3,23.0,0.00,Rain,Light Rain,220,2012-10-15 16:53:00
1:08 PM,51.8,48.2,88,29.70,4.0,SW,13.8,25.3,0.01,Rain,Light Rain,220,2012-10-15 17:08:00
1:35 PM,51.8,48.2,88,29.70,2.5,SW,19.6,25.3,0.05,Rain,Light Rain,230,2012-10-15 17:35:00
1:43 PM,51.8,48.2,88,29.70,4.0,SW,17.3,27.6,0.05,Rain,Light Rain,230,2012-10-15 17:43:00
1:53 PM,52.0,48.9,89,29.70,5.0,WSW,12.7,25.3,0.06,Rain,Light Rain,240,2012-10-15 17:53:00
2:23 PM,53.6,46.4,77,29.70,10.0,WSW,12.7,25.3,0.00,Rain,Light Rain,250,2012-10-15 18:23:00
2:31 PM,51.8,46.4,82,29.70,9.0,WSW,15.0,23.0,0.00,Rain,Light Rain,250,2012-10-15 18:31:00
2:53 PM,53.1,45.0,74,29.70,10.0,WSW,18.4,28.8,0.01,,Overcast,250,2012-10-15 18:53:00
3:53 PM,52.0,44.1,74,29.72,10.0,WSW,17.3,32.2,0.00,Rain,Light Rain,240,2012-10-15 19:53:00
4:53 PM,53.1,43.0,69,29.74,10.0,West,18.4,25.3,0.00,,Overcast,260,2012-10-15 20:53:00
5:24 PM,51.8,42.8,71,29.75,10.0,West,16.1,24.2,N/A,,Overcast,280,2012-10-15 21:24:00
5:48 PM,51.8,42.8,71,29.76,10.0,West,10.4,23.0,N/A,,Overcast,270,2012-10-15 21:48:00
5:53 PM,52.0,42.1,69,29.76,10.0,West,13.8,24.2,N/A,,Overcast,270,2012-10-15 21:53:00
6:53 PM,50.0,42.1,74,29.78,10.0,WNW,12.7,26.5,N/A,,Overcast,290,2012-10-15 22:53:00
7:24 PM,50.0,41.0,71,29.79,10.0,West,16.1,23.0,N/A,,Overcast,270,2012-10-15 23:24:00
7:31 PM,50.0,39.2,66,29.79,10.0,West,11.5,23.0,N/A,,Overcast,270,2012-10-15 23:31:00
7:53 PM,50.0,41.0,71,29.81,10.0,WNW,15.0,24.2,N/A,,Overcast,290,2012-10-15 23:53:00
8:17 PM,50.0,41.0,71,29.81,10.0,West,12.7,26.5,N/A,,Overcast,280,2012-10-16 00:17:00
8:39 PM,50.0,39.2,66,29.82,10.0,WNW,13.8,26.5,N/A,,Overcast,290,2012-10-16 00:39:00
8:51 PM,50.0,41.0,71,29.82,10.0,WNW,9.2,19.6,N/A,,Overcast,300,2012-10-16 00:51:00
8:53 PM,50.0,41.0,71,29.83,10.0,WNW,11.5,17.3,N/A,,Overcast,300,2012-10-16 00:53:00
9:00 PM,48.2,42.8,82,29.82,10.0,WNW,10.4,18.4,N/A,,Overcast,300,2012-10-16 01:00:00
9:40 PM,48.2,39.2,71,29.84,10.0,WNW,16.1,24.2,N/A,,Overcast,290,2012-10-16 01:40:00
9:53 PM,48.9,39.9,71,29.85,10.0,WNW,13.8,23.0,N/A,,Overcast,290,2012-10-16 01:53:00
10:41 PM,48.2,41.0,76,29.84,10.0,WNW,11.5,23.0,0.00,Rain,Light Rain,290,2012-10-16 02:41:00
10:53 PM,48.0,41.0,77,29.85,10.0,WNW,10.4,20.7,0.00,,Overcast,300,2012-10-16 02:53:00
11:53 PM,48.0,41.0,77,29.86,10.0,WNW,11.5,-,0.00,,Overcast,300,2012-10-16 03:53:00